User: anonymous   Login
Location: Unspecified
(0.0000°N, 0.0000°E)
Time: 20:41:01
(UTC+00:00)
Language:

COSMOS 2489 - Orbit

View from above orbital plane
View from above orbital plane
View from above satellite
View from above satellite

Ground track
Ground track

The orbit data is extracted from the following two-line orbital elements,

1 39484U 13076B   17172.73377462 +.00000010 +00000-0 +00000-0 0  9993
2 39484 082.4886 054.7057 0023084 051.3586 308.9555 12.42877921158382
Epoch (UTC): 21 June 2017 17:36:38
Eccentricity: 0.0023084
inclination: 82.4886°
perigee height: 1476 km
apogee height: 1512 km
right ascension of ascending node: 54.7057°
argument of perigee: 51.3586°
revolutions per day: 12.42877921
mean anomaly at epoch: 308.9555°
orbit number at epoch: 15838

The dashed part of the orbit path shows where the satellite is in the earth's shadow,  

DLR